Location: Unspecified
(0.0000°N, 0.0000°E)
Time: 01:39:48
(UTC+02:00)

Genesis I - Visible Passes

Search period start: 22 June 2021 00:00
Search period end: 02 July 2021 00:00
Orbit: 479 x 540 km, 64.5° (Epoch: 21 June)

Date Brightness Start Highest point End Pass type
(mag) Time Alt. Az. Time Alt. Az. Time Alt. Az.
22 Jun 6.0 06:41:03 10° NNE 06:44:12 22° ENE 06:47:20 10° ESE visible
23 Jun 5.9 06:23:25 10° NNE 06:26:32 22° ENE 06:29:37 10° ESE visible
24 Jun 5.8 06:05:47 10° NNE 06:08:52 21° ENE 06:11:53 10° ESE visible
25 Jun 5.8 05:48:10 10° NNE 05:51:11 20° ENE 05:54:11 10° ESE visible
25 Jun 4.9 07:26:23 10° W 07:28:28 14° WSW 07:30:33 10° SW visible
